Eugene, OR

3:49 PM PST on November 16, 2019 (GMT -0800)
Mahlon Sweet

Weather History for KEUG - September, 2019

Change the Weather History Date:

Friday, September 13, 2019

  Actual Average Record
Temperature  
Mean Temperature 68 °F 63 °F  
Max Temperature 77 °F 78 °F 96 °F (1989)
Min Temperature 58 °F 48 °F 33 °F (1921)
Degree Days  
Heating Degree Days 0 3  
Month to date heating degree days 7 32  
Since 1 July heating degree days 19 99  
Cooling Degree Days 3 1  
Month to date cooling degree days 42 20  
Year to date cooling degree days 350 228  
Growing Degree Days 18 (Base 50)    
Moisture  
Dew Point 57 °F    
Average Humidity 68    
Maximum Humidity 86    
Minimum Humidity 50    
Precipitation  
Precipitation T in 0.04 in 0.68 in (1968)
Month to date precipitation 1.66 0.46  
Year to date precipitation 24.87 26.47  
Sea Level Pressure  
Sea Level Pressure 30.15 in    
Wind  
Wind Speed 6 mph (NE)    
Max Wind Speed 13 mph    
Max Gust Speed 14 mph    
Visibility 9 miles    
Events Rain    
T = Trace of Precipitation, MM = Missing Value Source: NWS Daily Summary

Daily Weather History Graph

Daily Weather History Graph

Search for Another Location

Airport or City:

Astronomy

Sep. 13, 2019 Rise Set
Actual Time 6:49 AM PDT 7:27 PM PDT
Civil Twilight 6:20 AM PDT 7:56 PM PDT
Nautical Twilight 5:45 AM PDT 8:30 PM PDT
Astronomical Twilight 5:10 AM PDT 9:06 PM PDT
Moon 7:45 PM PDT (9/13) 6:08 AM PDT (9/13)
Length of Visible Light 13h 35m
Length of Day
12h 37m
Full, 100% of the Moon is Illuminated
Sep 13
Full
Sep 13
Full
Sep 21
Last Quarter
Sep 28
New
Oct 5
First Quarter

Hourly Weather History & Observations

Time (PDT) Temp. Dew Point Humidity Pressure Visibility Wind Dir Wind Speed Gust Speed Precip Events Conditions
12:54 AM 61.0 °F 54.0 °F 78% 30.16 in 10.0 mi South 5.8 mph - N/A   Clear
1:54 AM 57.9 °F 53.1 °F 84% 30.17 in 10.0 mi South 6.9 mph - N/A   Clear
2:54 AM 59.0 °F 54.0 °F 83% 30.15 in 10.0 mi SE 5.8 mph - N/A   Mostly Cloudy
4:54 AM 60.1 °F 54.0 °F 80% 30.14 in 10.0 mi South 8.1 mph - N/A   Overcast
5:48 AM 60.8 °F 55.4 °F 82% 30.16 in 10.0 mi SE 6.9 mph - N/A   Overcast
5:54 AM 61.0 °F 55.0 °F 81% 30.15 in 10.0 mi SSE 6.9 mph - N/A   Mostly Cloudy
6:54 AM 61.0 °F 55.0 °F 81% 30.16 in 10.0 mi SSE 5.8 mph - N/A   Overcast
6:57 AM 61.0 °F 55.0 °F 81% 30.16 in 10.0 mi SSE 6.9 mph - N/A   Overcast
7:00 AM 61.0 °F 55.0 °F 81% 30.16 in 10.0 mi SSE 6.9 mph - N/A   Overcast
7:54 AM 62.1 °F 55.9 °F 80% 30.17 in 10.0 mi South 5.8 mph - N/A   Overcast
9:21 AM 64.0 °F 55.9 °F 75% 30.18 in 10.0 mi WSW 3.5 mph - N/A   Overcast
9:49 AM 62.6 °F 57.2 °F 82% 30.18 in 7.0 mi North 6.9 mph - N/A   Overcast
9:54 AM 62.1 °F 57.9 °F 86% 30.18 in 7.0 mi North 5.8 mph - N/A   Overcast
10:54 AM 63.0 °F 59.0 °F 87% 30.19 in 3.0 mi NNE 3.5 mph - 0.00 in   Light Drizzle
11:35 AM 68.0 °F 60.1 °F 76% 30.19 in 9.0 mi North 6.9 mph - 0.00 in   Mostly Cloudy
11:51 AM 68.0 °F 59.0 °F 73% 30.18 in 10.0 mi North 8.1 mph - 0.00 in   Mostly Cloudy
11:54 AM 69.1 °F 59.0 °F 70% 30.18 in 10.0 mi North 8.1 mph - 0.00 in   Overcast
12:54 PM 72.0 °F 59.0 °F 64% 30.17 in 10.0 mi North 9.2 mph - N/A   Mostly Cloudy
1:54 PM 72.0 °F 59.0 °F 64% 30.17 in 10.0 mi North 8.1 mph - N/A   Overcast
2:54 PM 73.9 °F 57.9 °F 57% 30.14 in 10.0 mi NNE 6.9 mph - N/A   Mostly Cloudy
4:54 PM 75.9 °F 55.9 °F 50% 30.11 in 10.0 mi Calm Calm - N/A   Mostly Cloudy
5:54 PM 75.0 °F 55.9 °F 51% 30.10 in 10.0 mi NNE 4.6 mph - N/A   Mostly Cloudy
6:54 PM 71.1 °F 57.9 °F 63% 30.09 in 10.0 mi North 4.6 mph - N/A   Mostly Cloudy
7:54 PM 68.0 °F 57.0 °F 68% 30.08 in 10.0 mi Calm Calm - N/A   Clear
8:54 PM 64.9 °F 59.0 °F 81% 30.09 in 10.0 mi NW 4.6 mph - N/A   Mostly Cloudy
9:54 PM 63.0 °F 59.0 °F 87% 30.09 in 10.0 mi North 3.5 mph - N/A   Mostly Cloudy
10:54 PM 60.1 °F 57.9 °F 93% 30.10 in 10.0 mi Calm Calm - N/A   Mostly Cloudy
11:54 PM 60.1 °F 55.9 °F 86% 30.10 in 10.0 mi Calm Calm - N/A   Clear